Tracking 19717 objects as of 25-Jun-2019
HD Live streaming from Space Station
objects crossing your sky now

DELTA 1 DEB

Track DELTA 1 DEB now!
10-day predictions


NORAD ID: 12266
Int'l Code: 1978-026DK
Perigee: 821.4 km
Apogee: 1,047.4 km
Inclination: 98.8 °
Period: 103.6 minutes
Semi major axis: 7305 km
RCS: 0.0032 m2 (small)
Launch date: March 5, 1978
Source: United States (US)
Launch site: AIR FORCE WESTERN TEST RANGE (AFWTR)

Note: This is SATELLITE DEBRIS
aabbcc
Your satellite tracking list
Your tracking list is empty




NASA's NSSDC Master Catalog

Two Line Element Set (TLE):
1 12266U 78026DK  19175.62532512 +.00000124 +00000-0 +12170-3 0  9990
2 12266 098.8134 067.8819 0154702 223.9430 134.9343 13.90388210928981
Source of the keplerian elements: AFSPC